SL-8 DEB, 1549

Orbit data source: Space-Track

SL-8 DEB, 1549 is space debris in LEO originally from a launch on Mon, 15 Mar 1965 UTC launched from the Tyuratam Missile And Space Complex (TTMTR). Debris objects in space refer to the collection of defunct objects orbiting the Earth. Examples of debris include non-operational satellites, rocket bodies, and fragments generated from explosions, collisions, or faulty payload assembly.

Loading next visibility...
Identifier
1549, 1965-020CV
Orbit
LEO
Country
Flag of CISCIS
Related business
Manufacturer
Unknown
Mission
Spacecraft
Bus & Motor
Unknown
Mass
Unknown
Launch date (UTC)
1965-03-15 (61 years ago)
Launch vehicle
Unknown
Launch site
Tyuratam Missile And Space Complex (TTMTR)
Object type
Payload
Rocket body
Debris
Shape & HBR
Unknown shape, 0.1 m
Radar Cross Section
Medium (>0.1 m² and <1 m²)

Expand to show TLE details & history
Last TLE update: 2 days ago

TLE from 2 days ago
0 SL-8 DEB
1  1549U 65020CV  26125.28643036  .00000698  00000-0  10657-2 0  9994
2  1549  56.1650  43.3269 0840563  44.7607 321.8088 12.64512696809510
Epoch: 2026-05-05T06:52Z
TLE epoch observation values (Epoch: 2026-05-05T06:52:27.583Z)
Latitude
-0°
Longitude
77.04852°
Altitude
914.525 km
Speed
7.625 km/s
True Right ascension
02h 53m 18s
True Declination
0° 00' 00"
Sunlit
Object was in daylight at epoch
Visualization orbit readout
Latitude
Unknown
Longitude
Unknown
Altitude
Unknown
Speed
Unknown
Apparent Right ascension
Unknown
Apparent Declination
Unknown
Sunlit
N/A
Visualization observer readout
Local Sidereal Time
04:04:04
Azimuth
Unknown
Elevation
Unknown
Doppler factor
Unknown
Orbital elements
Apogee altitude
2,058.331 km
Perigee altitude
750.026 km
Semi-major axis
7,782.315 km
Eccentricity
0.08406
Inclination
56.165°
RAAN
43.3269°
Arg. of periapsis
44.7607°
True anomaly
315.33339°
Mean anomaly
321.8088°
Eccentric anomaly
318.62548°
Mean motion
3.1614 °/min
Orbital period
113.87 mins
BSTAR
0.0010657
Loading maneuver chart data...
Computing Atmospheric mass density...
Loading historical data...
Loading historical data...
Loading historical data...
Loading historical data...
Loading historical data...
Loading historical data...
Loading historical data...

Documentation

Showing up to 5 results
|